GSAT0224 (GALILEO 28)

Last updated on Mon Dec 15 2025 00:02:41 GMT+0000 (Coordinated Universal Time)

1 49810U 21116B 25348.03899953 -.00000085 00000+0 00000+0 0 9993 2 49810 57.2200 346.6758 0003861 256.6425 106.3645 1.70476108 25058
UTC large
Height (km)
Speed (km/s)
/
Latitude / Longitude
Inclination (degrees)
Orbital Period (minutes)
Azimuth
Elevation
Range (km)
Doppler Factor

Next 0 passes for location: London (51.5072 / 0.1276)

Sorry there are no passes over London.